Time,TemperatureF,DewpointF,PressureIn,WindDirection,WindDirectionDegrees,WindSpeedMPH,WindSpeedGustMPH,Humidity,HourlyPrecipIn,Conditions,Clouds,dailyrainin,SolarRadiationWatts/m^2,SoftwareType,DateUTC
2013-07-23 00:01:00,69.0,68.0,-100.00,West,260,1.0,5.0,97,0.00,,,0.56,0.000000,,2013-07-23 04:01:00,
2013-07-23 00:11:00,69.0,68.0,-100.00,West,260,1.0,5.0,97,0.00,,,0.56,0.000000,,2013-07-23 04:11:00,
2013-07-23 00:22:00,69.0,68.0,-100.00,West,260,1.0,5.0,97,0.00,,,0.56,0.000000,,2013-07-23 04:22:00,
2013-07-23 00:43:00,68.0,68.0,-100.00,North,357,1.0,2.0,99,0.00,,,0.56,0.000000,,2013-07-23 04:43:00,
2013-07-23 00:53:00,68.0,68.0,-100.00,North,357,1.0,2.0,99,0.00,,,0.56,0.000000,,2013-07-23 04:53:00,
2013-07-23 01:02:00,68.0,68.0,-100.00,North,357,1.0,2.0,99,0.00,,,0.56,0.000000,,2013-07-23 05:02:00,
2013-07-23 01:11:00,68.0,68.0,-100.00,North,357,1.0,2.0,99,0.00,,,0.56,0.000000,,2013-07-23 05:11:00,
2013-07-23 01:22:00,68.0,68.0,-100.00,North,357,1.0,2.0,99,0.00,,,0.56,0.000000,,2013-07-23 05:22:00,
2013-07-23 01:44:00,67.0,67.0,-100.00,SSE,165,1.0,4.0,100,0.00,,,0.56,0.000000,,2013-07-23 05:44:00,
2013-07-23 01:52:00,67.0,67.0,-100.00,SSE,165,1.0,4.0,100,0.00,,,0.56,0.000000,,2013-07-23 05:52:00,
2013-07-23 02:01:00,67.0,67.0,-100.00,SSE,165,1.0,4.0,100,0.00,,,0.56,0.000000,,2013-07-23 06:01:00,
2013-07-23 02:11:00,67.0,67.0,-100.00,SSE,165,1.0,4.0,100,0.00,,,0.56,0.000000,,2013-07-23 06:11:00,
2013-07-23 02:22:00,67.0,67.0,-100.00,SSE,165,1.0,4.0,100,0.00,,,0.56,0.000000,,2013-07-23 06:22:00,
2013-07-23 04:52:00,67.0,67.0,-100.00,SE,130,0.0,2.0,100,-99.99,,,0.56,0.000000,,2013-07-23 08:52:00,
2013-07-23 05:01:00,67.0,67.0,-100.00,SE,130,0.0,2.0,100,-99.99,,,0.56,0.000000,,2013-07-23 09:01:00,
2013-07-23 05:11:00,67.0,67.0,-100.00,SE,130,0.0,2.0,100,-99.99,,,0.56,0.000000,,2013-07-23 09:11:00,
2013-07-23 05:22:00,67.0,67.0,-100.00,SE,130,0.0,2.0,100,-99.99,,,0.56,0.000000,,2013-07-23 09:22:00,
2013-07-23 05:53:00,67.0,67.0,-100.00,ESE,113,0.0,0.0,100,0.00,,,0.56,0.000000,,2013-07-23 09:53:00,
2013-07-23 06:02:00,67.0,67.0,-100.00,ESE,113,0.0,0.0,100,0.00,,,0.56,0.000000,,2013-07-23 10:02:00,
2013-07-23 06:11:00,67.0,67.0,-100.00,ESE,113,0.0,0.0,100,0.00,,,0.56,0.000000,,2013-07-23 10:11:00,
2013-07-23 06:22:00,67.0,67.0,-100.00,ESE,113,0.0,0.0,100,0.00,,,0.56,0.000000,,2013-07-23 10:22:00,
2013-07-23 06:52:00,67.0,67.0,-100.00,ESE,119,1.0,2.0,100,0.00,,,0.56,0.000000,,2013-07-23 10:52:00,
2013-07-23 07:02:00,67.0,67.0,-100.00,ESE,119,1.0,2.0,100,0.00,,,0.56,0.000000,,2013-07-23 11:02:00,
2013-07-23 07:12:00,67.0,67.0,-100.00,ESE,119,1.0,2.0,100,0.00,,,0.56,0.000000,,2013-07-23 11:12:00,
2013-07-23 07:22:00,67.0,67.0,-100.00,ESE,119,1.0,2.0,100,0.00,,,0.56,0.000000,,2013-07-23 11:22:00,
2013-07-23 07:43:00,68.0,68.0,-100.00,NNE,30,0.0,2.0,100,0.00,,,0.56,14.000000,,2013-07-23 11:43:00,
2013-07-23 07:52:00,68.0,68.0,-100.00,NNE,30,0.0,2.0,100,0.00,,,0.56,14.000000,,2013-07-23 11:52:00,
2013-07-23 08:02:00,68.0,68.0,-100.00,NNE,30,0.0,2.0,100,0.00,,,0.56,14.000000,,2013-07-23 12:02:00,
2013-07-23 08:11:00,68.0,68.0,-100.00,NNE,30,0.0,2.0,100,0.00,,,0.56,14.000000,,2013-07-23 12:11:00,
2013-07-23 08:22:00,68.0,68.0,-100.00,NNE,30,0.0,2.0,100,0.00,,,0.56,14.000000,,2013-07-23 12:22:00,
2013-07-23 08:43:00,70.0,70.0,-100.00,ESE,105,2.0,4.0,100,0.00,,,0.55,91.000000,,2013-07-23 12:43:00,
2013-07-23 09:01:00,70.0,70.0,-100.00,ESE,105,2.0,4.0,100,0.00,,,0.55,91.000000,,2013-07-23 13:01:00,
2013-07-23 09:11:00,70.0,70.0,-100.00,ESE,105,2.0,4.0,100,0.00,,,0.55,91.000000,,2013-07-23 13:11:00,
2013-07-23 09:22:00,70.0,70.0,-100.00,ESE,105,2.0,4.0,100,0.00,,,0.55,91.000000,,2013-07-23 13:22:00,
2013-07-23 09:52:00,74.0,71.0,-100.00,NW,310,1.0,4.0,90,0.00,,,0.55,253.000000,,2013-07-23 13:52:00,
2013-07-23 10:02:00,74.0,71.0,-100.00,NW,310,1.0,4.0,90,0.00,,,0.55,253.000000,,2013-07-23 14:02:00,
2013-07-23 10:12:00,74.0,71.0,-100.00,NW,310,1.0,4.0,90,0.00,,,0.55,253.000000,,2013-07-23 14:12:00,
2013-07-23 10:22:00,74.0,71.0,-100.00,NW,310,1.0,4.0,90,0.00,,,0.55,253.000000,,2013-07-23 14:22:00,
2013-07-23 10:23:00,77.0,72.0,-100.00,North,3,2.0,4.0,85,0.00,,,0.53,520.000000,,2013-07-23 14:23:00,
2013-07-23 10:44:00,77.0,72.0,-100.00,North,3,2.0,4.0,85,0.00,,,0.53,520.000000,,2013-07-23 14:44:00,
2013-07-23 10:54:00,77.0,72.0,-100.00,North,3,2.0,4.0,85,0.00,,,0.53,520.000000,,2013-07-23 14:54:00,
2013-07-23 11:03:00,77.0,72.0,-100.00,North,3,2.0,4.0,85,0.00,,,0.53,520.000000,,2013-07-23 15:03:00,
2013-07-23 11:11:00,77.0,72.0,-100.00,North,3,2.0,4.0,85,0.00,,,0.53,520.000000,,2013-07-23 15:11:00,
2013-07-23 11:52:00,81.0,74.0,-100.00,North,2,3.0,6.0,80,0.00,,,0.52,590.000000,,2013-07-23 15:52:00,
2013-07-23 12:01:00,81.0,74.0,-100.00,North,2,3.0,6.0,80,0.00,,,0.52,590.000000,,2013-07-23 16:01:00,
2013-07-23 12:12:00,81.0,74.0,-100.00,North,2,3.0,6.0,80,0.00,,,0.52,590.000000,,2013-07-23 16:12:00,
2013-07-23 12:22:00,81.0,74.0,-100.00,North,2,3.0,6.0,80,0.00,,,0.52,590.000000,,2013-07-23 16:22:00,
2013-07-23 13:23:00,83.0,73.0,-100.00,NNE,23,2.0,6.0,73,-99.99,,,-99.99,772.000000,,2013-07-23 17:23:00,
2013-07-23 13:42:00,83.0,73.0,-100.00,NNE,23,2.0,6.0,73,-99.99,,,-99.99,772.000000,,2013-07-23 17:42:00,
2013-07-23 13:57:00,83.0,73.0,-100.00,NNE,23,2.0,6.0,73,-99.99,,,-99.99,772.000000,,2013-07-23 17:57:00,
2013-07-23 14:04:00,83.0,73.0,-100.00,NNE,23,2.0,6.0,73,-99.99,,,-99.99,772.000000,,2013-07-23 18:04:00,
2013-07-23 14:23:00,81.0,78.0,-100.00,South,183,1.0,5.0,91,0.03,,,0.19,454.000000,,2013-07-23 18:23:00,
2013-07-23 14:49:00,81.0,78.0,-100.00,South,183,1.0,5.0,91,0.03,,,0.19,454.000000,,2013-07-23 18:49:00,
2013-07-23 14:58:00,81.0,78.0,-100.00,South,183,1.0,5.0,91,0.03,,,0.19,454.000000,,2013-07-23 18:58:00,
2013-07-23 15:03:00,81.0,78.0,-100.00,South,183,1.0,5.0,91,0.03,,,0.19,454.000000,,2013-07-23 19:03:00,
2013-07-23 15:15:00,81.0,78.0,-100.00,South,183,1.0,5.0,91,0.03,,,0.19,454.000000,,2013-07-23 19:15:00,
2013-07-23 15:23:00,84.0,79.0,-100.00,ESE,119,1.0,5.0,84,0.02,,,-99.99,611.000000,,2013-07-23 19:23:00,
2013-07-23 15:55:00,84.0,79.0,-100.00,ESE,119,1.0,5.0,84,0.02,,,-99.99,611.000000,,2013-07-23 19:55:00,
2013-07-23 16:07:00,84.0,79.0,-100.00,ESE,119,1.0,5.0,84,0.02,,,-99.99,611.000000,,2013-07-23 20:07:00,
2013-07-23 16:13:00,84.0,79.0,-100.00,ESE,119,1.0,5.0,84,0.02,,,-99.99,611.000000,,2013-07-23 20:13:00,
2013-07-23 16:23:00,80.0,74.0,-100.00,SE,127,2.0,4.0,82,0.00,,,0.21,588.000000,,2013-07-23 20:23:00,
2013-07-23 16:48:00,80.0,74.0,-100.00,SE,127,2.0,4.0,82,0.00,,,0.21,588.000000,,2013-07-23 20:48:00,
2013-07-23 16:59:00,80.0,74.0,-100.00,SE,127,2.0,4.0,82,0.00,,,0.21,588.000000,,2013-07-23 20:59:00,
2013-07-23 17:05:00,80.0,74.0,-100.00,SE,127,2.0,4.0,82,0.00,,,0.21,588.000000,,2013-07-23 21:05:00,
2013-07-23 17:15:00,80.0,74.0,-100.00,SE,127,2.0,4.0,82,0.00,,,0.21,588.000000,,2013-07-23 21:15:00,
2013-07-23 17:23:00,77.0,72.0,-100.00,ESE,116,2.0,9.0,86,0.04,,,0.25,448.000000,,2013-07-23 21:23:00,
2013-07-23 17:57:00,77.0,72.0,-100.00,ESE,116,2.0,9.0,86,0.04,,,0.25,448.000000,,2013-07-23 21:57:00,
2013-07-23 18:05:00,77.0,72.0,-100.00,ESE,116,2.0,9.0,86,0.04,,,0.25,448.000000,,2013-07-23 22:05:00,
2013-07-23 18:12:00,77.0,72.0,-100.00,ESE,116,2.0,9.0,86,0.04,,,0.25,448.000000,,2013-07-23 22:12:00,
2013-07-23 19:23:00,72.0,71.0,-100.00,NE,34,2.0,6.0,96,-99.99,,,-99.99,192.000000,,2013-07-23 23:23:00,
2013-07-23 19:47:00,72.0,71.0,-100.00,NE,34,2.0,6.0,96,-99.99,,,-99.99,192.000000,,2013-07-23 23:47:00,
2013-07-23 20:00:00,72.0,71.0,-100.00,NE,34,2.0,6.0,96,-99.99,,,-99.99,192.000000,,2013-07-24 00:00:00,
2013-07-23 20:14:00,72.0,71.0,-100.00,NE,34,2.0,6.0,96,-99.99,,,-99.99,192.000000,,2013-07-24 00:14:00,
2013-07-23 20:23:00,70.0,69.0,-100.00,ENE,76,2.0,7.0,98,0.11,,,-99.99,36.000000,,2013-07-24 00:23:00,
2013-07-23 20:50:00,70.0,69.0,-100.00,ENE,76,2.0,7.0,98,0.11,,,-99.99,36.000000,,2013-07-24 00:50:00,
2013-07-23 20:58:00,70.0,69.0,-100.00,ENE,76,2.0,7.0,98,0.11,,,-99.99,36.000000,,2013-07-24 00:58:00,
2013-07-23 21:04:00,70.0,69.0,-100.00,ENE,76,2.0,7.0,98,0.11,,,-99.99,36.000000,,2013-07-24 01:04:00,
2013-07-23 21:15:00,70.0,69.0,-100.00,ENE,76,2.0,7.0,98,0.11,,,-99.99,36.000000,,2013-07-24 01:15:00,
2013-07-23 21:23:00,69.0,69.0,-100.00,ESE,104,2.0,4.0,99,0.00,,,0.29,33.000000,,2013-07-24 01:23:00,
2013-07-23 22:01:00,69.0,69.0,-100.00,ESE,104,2.0,4.0,99,0.00,,,0.29,33.000000,,2013-07-24 02:01:00,
2013-07-23 22:17:00,69.0,69.0,-100.00,ESE,104,2.0,4.0,99,0.00,,,0.29,33.000000,,2013-07-24 02:17:00,
2013-07-23 23:58:00,69.0,69.0,-100.00,NNW,328,1.0,4.0,100,-99.99,,,0.29,0.000000,,2013-07-24 03:58:00,